Location: Ariel
(45.9570°N, 122.5700°W)
Time: 18:15:39
(UTC-07:00)

AO-85 - Visible Passes

Search period start: 23 October 2020 00:00
Search period end: 01 November 2020 23:00
Orbit: 521 x 762 km, 64.8° (Epoch: 12 March)

Date Brightness Start Highest point End Pass type
(mag) Time Alt. Az. Time Alt. Az. Time Alt. Az.
23 Oct ? 06:29:03 10° SSE 06:31:40 17° ESE 06:34:20 10° ENE visible
24 Oct ? 06:52:07 10° S 06:55:49 43° ESE 06:59:37 10° NE visible
25 Oct ? 05:39:19 10° SE 05:40:29 11° ESE 05:41:39 10° E visible
26 Oct ? 06:01:12 10° S 06:04:31 27° ESE 06:07:56 10° ENE visible
27 Oct ? 06:24:54 10° SSW 06:28:46 70° ESE 06:32:46 10° NE visible
28 Oct ? 05:10:58 12° SSE 05:13:17 18° ESE 05:16:01 10° ENE visible
28 Oct ? 06:49:28 10° SW 06:53:15 48° NW 06:57:11 10° NNE visible
29 Oct ? 05:36:02 30° S 05:37:26 44° ESE 05:41:15 10° NE visible
29 Oct ? 07:14:45 10° W 07:17:58 23° NW 07:21:18 10° NNE visible
30 Oct ? 04:23:11 10° E 04:23:11 10° E 04:23:25 10° E visible
30 Oct ? 06:00:49 48° WSW 06:01:48 73° NW 06:05:50 10° NNE visible
31 Oct ? 04:47:46 21° ENE 04:47:46 21° ENE 04:49:34 10° ENE visible
31 Oct ? 06:25:24 28° WNW 06:26:23 32° NW 06:30:05 10° NNE visible
01 Nov ? 04:12:12 31° NE 04:12:12 31° NE 04:14:24 10° NE visible
01 Nov ? 05:49:48 15° WNW 05:51:14 18° NW 05:54:02 10° N visible
